sat.trackr.live / text

‹ back to catalog

CMS-02 (GSAT-24)

NORAD 52903 · 2022-067A

PAYLOAD ACTIVE UNKNOWN

§ Identity

Operator
Country
IND
Launch date
2022-06-22
Launch site
FRGUI
Launch vehicle
Mass (kg)
RCS (m²)

Purposes: comms

External: N2YO · Heavens-Above · Gunter

§ Orbital elements

Epoch: 2026-05-25T02:25:37.886880Z

Period
1,436.11 min
Inclination
0.0198°
Eccentricity
0.0002455
Mean motion
1.00271081 rev/d
Perigee alt
35,776.4 km
Apogee alt
35,797.1 km
Semi-major
42,164.9 km
B*
0.0000e+0
RAAN
256.7299°
Arg perigee
107.3708°
Mean anomaly
357.9942°
Rev number
1,437

§ Raw data

CMS-02 (GSAT-24)1 52903U 22067A   26145.10113295 -.00000167  00000+0  00000+0 0  99992 52903   0.0198 256.7299 0002455 107.3708 357.9942  1.00271081 14375

JSON: /api/v1/satellites/52903 · /tle

For live sub-satellite position, see the globe view (requires WebGL).

§ Visibility from observer

Set your observer location to see the next 7 days of passes ≥ 10°. The values pass through the URL so the page stays shareable.

No JS? Fill the form by hand. The geolocation button needs JavaScript.